Terminal Aerodrome Forecast
Issued by NWS Upton, NY

Current Version | Previous Version | Text Only | Print | Product List | Glossary On
Versions: 1 2 3 4 5 6 7 8 9 10 11 12 13 14 15 16 17 18 19 20 21 22 23 24 25 26 27 28 29 30 31 32 33 34
000 FTUS41 KOKX 291744 TAFISP TAF KISP 291744Z 2918/3018 06016G23KT P6SM OVC025 FM300600 05020G28KT P6SM OVC015 FM301000 06022G30KT P6SM -RA OVC015 FM301500 06023G32KT 3SM RA OVC010=

USA.gov is the U.S. government's official web portal to all federal, state and local government web resources and services.